Orbital Elements at Epoch 2459200.5 (2020-Dec-17.0) TDB
Reference: JPL 12 (heliocentric ecliptic J2000)
Element | Value | Uncertainty (1-sigma) | Units |
e | .06092361463900696 | 5.7005e-05 | |
a | 42.9571643092582 | 0.0020801 | au |
q | 40.34005858489645 | 0.0035345 | au |
i | 13.8951098164446 | 0.00012461 | deg |
node | 247.6189862540032 | 0.00074508 | deg |
peri | 37.64362843471307 | 0.035714 | deg |
M | 281.5916027430564 | 0.033289 | deg |
tp | 2481598.637690392261 (2082-Apr-14.13769039) | 7.8922 | TDB |
period | 102837.5767217605 281.55 | 7.4693 0.02045 | d yr |
n | .003500665918782036 | 2.5426e-07 | deg/d |
Q | 45.57427003361994 | 0.0022068 | au |
|
| | Orbit Determination Parameters
Additional Information
|